VALLADOLID(MIL/CIV) current weather conditions

sailwx.info

Wind from 070 at 15 knots

Air temperature 1.0° C
Visibility: greater than 5.4 NM
Dewpoint -4.0° C

Last reported at 2018-Feb-21 20:30 UTC.
Time now 2018-Feb-22 05:11 UTC

Location: N 41°43' W 004°50'.
View on Google Maps.

See reports from other nearby stations

  
Tides and Currents Weather Stations Pressure Air Temp Water Temp Dewpoint Dewpoint Depression Visibility Wind Speed Wind Dir Waves Ship Positions
date/time (UTC)wind fromknots sea level pressurealtimeterstation pressurevisibilityair tempwater tempwave heightnotes
2018-Feb-21 20:30 070 15 5.4 1.0
2018-Feb-21 20:00 040 17 5.4 1.0
2018-Feb-21 19:30 060 20 5.4 2.0
2018-Feb-21 19:00 060 17 5.4 2.0
2018-Feb-21 18:30 070 17 5.4 2.0
2018-Feb-21 18:00 080 17 5.4 3.0
2018-Feb-21 17:30 060 21 5.4 5.0
2018-Feb-21 17:00 060 22 5.4 5.0
2018-Feb-21 16:30 050 21 5.4 6.0
2018-Feb-21 16:00 050 17 5.4 7.0
2018-Feb-21 15:30 050 15 5.4 7.0
2018-Feb-21 15:00 040 15 5.4 8.0
2018-Feb-21 14:30 050 15 5.4 8.0
2018-Feb-21 14:00 050 15 5.4 7.0
2018-Feb-21 13:30 050 20 5.4 8.0
2018-Feb-21 13:00 040 17 5.4 6.0
2018-Feb-21 12:30 040 21 5.4 6.0
2018-Feb-21 12:00 050 17 5.4 7.0
2018-Feb-21 11:30 050 17 5.4 6.0
2018-Feb-21 11:00 060 14 5.4 5.0
2018-Feb-21 10:30 050 18 5.4 6.0
2018-Feb-21 10:00 040 18 5.4 5.0
2018-Feb-21 09:30 050 17 5.4 4.0
2018-Feb-21 09:00 050 13 5.4 3.0
2018-Feb-21 08:30 040 13 5.4 2.0
2018-Feb-21 08:00 050 11 5.4 1.0
2018-Feb-21 07:30 050 8 5.4-0.0
2018-Feb-21 07:00 050 7 5.4 1.0
2018-Feb-21 06:30 060 4 4.9-3.0
2018-Feb-21 06:00 030 2 4.3-2.0
2018-Feb-20 20:30 040 2 5.4 3.0
2018-Feb-20 20:00 060 6 5.4 3.0
2018-Feb-20 19:30 060 11 5.4 5.0
2018-Feb-20 19:00 060 13 5.4 6.0
2018-Feb-20 18:30 080 9 5.4 7.0
2018-Feb-20 18:00 080 11 5.4 8.0
2018-Feb-20 17:30 080 13 5.4 9.0
2018-Feb-20 17:00 030 13 5.411.0
2018-Feb-20 16:30 040 13 5.411.0
2018-Feb-20 16:00 040 9 5.411.0
2018-Feb-20 15:30 040 9 5.411.0
2018-Feb-20 15:00 030 9 5.411.0
2018-Feb-20 14:30 020 12 5.412.0
2018-Feb-20 14:00 030 11 5.411.0
2018-Feb-20 13:30 030 8 5.411.0
2018-Feb-20 13:00 040 8 5.410.0
2018-Feb-20 12:30 040 7 5.410.0
2018-Feb-20 12:00 020 6 5.410.0
2018-Feb-20 11:30 060 2 5.4 8.0
2018-Feb-20 11:00 060 6 5.4 8.0
2018-Feb-20 10:30 080 6 5.4 8.0
2018-Feb-20 10:00 060 6 5.4 7.0
2018-Feb-20 09:30 340 4 5.4 5.0
2018-Feb-20 09:00 020 4 5.4 5.0
2018-Feb-20 08:30 5.4 4.0
2018-Feb-20 08:00 5.4 3.0
2018-Feb-20 07:30 310 2 5.4 2.0
2018-Feb-20 07:00 280 1 5.4 2.0
2018-Feb-20 06:30 270 4 5.4 1.0
2018-Feb-20 06:00 240 2 5.4-0.0